GW3424 Weather Reports


time (UTC)temp
C
wind
direction
speed
KPH
gust
KPH
rain 1hr
cm
rain 24hr
cm
rain mn
cm
humidity
%
barometer
mb
20260906152551 30 360 8.0 14.5 0.00 0.00 0.00 46 974.9
20260906152053 30 360 8.0 14.5 0.00 0.00 0.00 45 974.9
20260906151552 30 360 9.7 14.5 0.00 0.00 0.00 45 975.0
20260906151052 31 360 11.3 19.3 0.00 0.00 0.00 45 974.9
20260906150552 31 360 11.3 19.3 0.00 0.00 0.00 45 974.8
20260906150056 32 9 11.3 17.7 0.00 0.00 0.00 41 974.6
20260906145554 32 11 9.7 16.1 0.00 0.00 0.00 35 974.6
20260906145055 32 11 4.8 14.5 0.00 0.00 0.00 36 974.6
20260906144600 31 360 8.0 16.1 0.00 0.00 0.00 38 974.5
20260906144052 31 360 6.4 16.1 0.00 0.00 0.00 39 974.4
20260906143552 30 360 3.2 9.7 0.00 0.00 0.00 44 974.4
20260906143055 30 360 3.2 9.7 0.00 0.00 0.00 44 974.4
20260906142552 29 360 3.2 9.7 0.00 0.00 0.00 45 974.3
20260906142052 29 360 3.2 6.4 0.00 0.00 0.00 46 974.2
20260906141553 28 360 4.8 6.4 0.00 0.00 0.00 45 974.3
20260906141052 28 360 1.6 8.0 0.00 0.00 0.00 47 974.3
20260906140552 28 360 3.2 9.7 0.00 0.00 0.00 48 974.3
20260906140054 28 360 4.8 9.7 0.00 0.00 0.00 48 974.2
20260906135552 28 360 4.8 8.0 0.00 0.00 0.00 49 974.1
20260906135052 27 360 3.2 6.4 0.00 0.00 0.00 49 974.1
20260906134603 27 360 1.6 3.2 0.00 0.00 0.00 49 974.0
20260906134052 27 360 0.0 3.2 0.00 0.00 0.00 48 974.0
20260906133552 27 360 0.0 6.4 0.00 0.00 0.00 48 973.9
20260906133056 27 360 3.2 6.4 0.00 0.00 0.00 48 973.9
20260906132554 27 360 1.6 4.8 0.00 0.00 0.00 47 973.9
20260906132051 27 360 1.6 4.8 0.00 0.00 0.00 47 973.8
20260906131553 27 360 0.0 6.4 0.00 0.00 0.00 47 973.8
20260906131051 27 360 1.6 6.4 0.00 0.00 0.00 47 973.7
20260906130552 27 360 0.0 1.6 0.00 0.00 0.00 47 973.7
20260906125555 28 360 0.0 3.2 0.00 0.00 0.00 46 973.7
20260906125051 28 360 0.0 6.4 0.00 0.00 0.00 45 973.7
20260906124553 28 360 3.2 6.4 0.00 0.00 0.00 45 973.6
20260906124053 28 360 1.6 4.8 0.00 0.00 0.00 44 973.7
20260906123552 29 360 0.0 4.8 0.00 0.00 0.00 43 973.6
20260906123052 29 360 1.6 4.8 0.00 0.00 0.00 43 973.6
20260906122552 30 360 0.0 4.8 0.00 0.00 0.00 42 973.6
20260906122051 30 360 0.0 9.7 0.00 0.00 0.00 41 973.5
20260906121552 31 360 4.8 12.9 0.00 0.00 0.00 41 973.5
20260906121052 31 360 3.2 14.5 0.00 0.00 0.00 38 973.4
20260906120552 31 360 6.4 16.1 0.00 0.00 0.00 37 973.6
20260906120052 31 360 11.3 16.1 0.00 0.00 0.00 37 973.5
20260906115552 31 360 9.7 16.1 0.00 0.00 0.00 37 973.4
20260906115051 31 360 6.4 12.9 0.00 0.00 0.00 37 973.4
20260906114603 31 360 8.0 16.1 0.00 0.00 0.00 37 973.4
20260906114051 32 360 8.0 17.7 0.00 0.00 0.00 37 973.5
20260906113552 31 360 9.7 17.7 0.00 0.00 0.00 37 973.5
20260906113052 31 360 11.3 16.1 0.00 0.00 0.00 37 973.5
20260906112552 31 360 8.0 16.1 0.00 0.00 0.00 37 973.4
20260906112052 31 360 6.4 17.7 0.00 0.00 0.00 38 973.6
20260906111616 31 360 11.3 17.7 0.00 0.00 0.00 38 973.6
20260906111056 31 360 9.7 16.1 0.00 0.00 0.00 39 973.5
20260906110555 30 360 6.4 16.1 0.00 0.00 0.00 41 973.6
20260906110051 30 360 6.4 16.1 0.00 0.00 0.00 42 973.5
20260906105552 28 360 6.4 9.7 0.00 0.00 0.00 44 973.6
20260906105052 28 360 6.4 8.0 0.00 0.00 0.00 46 973.5
20260906104554 28 360 3.2 6.4 0.00 0.00 0.00 46 973.5
20260906104052 28 360 1.6 6.4 0.00 0.00 0.00 46 973.5
20260906103552 29 360 3.2 8.0 0.00 0.00 0.00 45 973.5
20260906103052 29 360 3.2 6.4 0.00 0.00 0.00 45 973.4
20260906102552 29 360 3.2 8.0 0.00 0.00 0.00 44 973.5
20260906102051 29 360 4.8 8.0 0.00 0.00 0.00 44 973.4
20260906101552 30 360 4.8 6.4 0.00 0.00 0.00 43 973.3
20260906101053 30 360 1.6 8.0 0.00 0.00 0.00 42 973.4
20260906100552 30 360 4.8 8.0 0.00 0.00 0.00 43 973.5
20260906100051 30 360 3.2 8.0 0.00 0.00 0.00 43 973.4
20260906095554 30 360 3.2 8.0 0.00 0.00 0.00 41 973.3
20260906095052 30 360 3.2 9.7 0.00 0.00 0.00 43 973.4
20260906094552 29 360 6.4 9.7 0.00 0.00 0.00 43 973.5
20260906094052 29 360 1.6 6.4 0.00 0.00 0.00 45 973.6
20260906093552 29 360 3.2 6.4 0.00 0.00 0.00 45 973.5
20260906093100 29 360 3.2 6.4 0.00 0.00 0.00 46 973.4
20260906092552 29 360 3.2 6.4 0.00 0.00 0.00 45 973.5
20260906092052 30 360 3.2 8.0 0.00 0.00 0.00 45 973.4
20260906091552 30 360 4.8 8.0 0.00 0.00 0.00 43 973.4
20260906091052 30 360 4.8 8.0 0.00 0.00 0.00 42 973.3
20260906090551 30 360 3.2 9.7 0.00 0.00 0.00 41 973.2
20260906085551 31 360 4.8 8.0 0.00 0.00 0.00 40 973.4
20260906085051 31 360 3.2 8.0 0.00 0.00 0.00 40 973.4
20260906084556 31 360 3.2 8.0 0.00 0.00 0.00 39 973.4
20260906084052 31 360 3.2 8.0 0.00 0.00 0.00 37 973.5
20260906083552 32 20 3.2 9.7 0.00 0.00 0.00 37 973.4
20260906083052 32 360 3.2 12.9 0.00 0.00 0.00 36 973.6
20260906082551 32 360 4.8 16.1 0.00 0.00 0.00 36 973.6
20260906082055 32 360 4.8 16.1 0.00 0.00 0.00 36 973.6
20260906081555 32 360 6.4 16.1 0.00 0.00 0.00 35 973.6
20260906081055 32 360 9.7 16.1 0.00 0.00 0.00 35 973.6
20260906080552 32 360 8.0 14.5 0.00 0.00 0.00 35 973.7
20260906080055 32 360 8.0 14.5 0.00 0.00 0.00 35 973.7
20260906075551 32 360 9.7 14.5 0.00 0.00 0.00 35 973.7
20260906075052 32 360 6.4 12.9 0.00 0.00 0.00 35 973.7
20260906074555 32 360 8.0 12.9 0.00 0.00 0.00 35 973.9
20260906074051 32 360 3.2 12.9 0.00 0.00 0.00 35 973.8
20260906073554 32 360 8.0 14.5 0.00 0.00 0.00 35 973.8
20260906073058 32 360 4.8 14.5 0.00 0.00 0.00 34 973.9
20260906072554 32 360 6.4 14.5 0.00 0.00 0.00 34 973.8
20260906072054 32 360 6.4 16.1 0.00 0.00 0.00 34 973.9
20260906071552 32 360 8.0 16.1 0.00 0.00 0.00 34 973.9
20260906071052 32 128 6.4 14.5 0.00 0.00 0.00 34 974.0
20260906070552 32 124 8.0 17.7 0.00 0.00 0.00 34 973.9
20260906070109 32 120 9.7 17.7 0.00 0.00 0.00 34 974.1
20260906065555 32 132 6.4 16.1 0.00 0.00 0.00 34 974.0
20260906065052 32 141 4.8 12.9 0.00 0.00 0.00 34 974.0
20260906064552 32 360 6.4 14.5 0.00 0.00 0.00 34 974.0
20260906064053 33 360 8.0 14.5 0.00 0.00 0.00 33 973.9
20260906063551 33 360 4.8 12.9 0.00 0.00 0.00 32 974.0
20260906063052 33 360 6.4 9.7 0.00 0.00 0.00 32 974.0
20260906062551 33 360 6.4 12.9 0.00 0.00 0.00 32 973.9
20260906062052 33 360 6.4 12.9 0.00 0.00 0.00 32 973.9
20260906061609 32 360 6.4 12.9 0.00 0.00 0.00 33 973.9
20260906061051 32 360 6.4 9.7 0.00 0.00 0.00 33 974.0
20260906060555 32 360 3.2 6.4 0.00 0.00 0.00 34 974.0
20260906060052 32 360 0.0 3.2 0.00 0.00 0.00 37 974.0
20260906055553 32 360 0.0 1.6 0.00 0.00 0.00 36 974.0
20260906055052 32 360 0.0 1.6 0.00 0.00 0.00 35 974.1
20260906054552 32 360 0.0 1.6 0.00 0.00 0.00 35 974.0
20260906054052 32 360 0.0 1.6 0.00 0.00 0.00 35 974.0
20260906053552 32 360 0.0 3.2 0.00 0.00 0.00 33 974.0
20260906053056 32 360 0.0 4.8 0.00 0.00 0.00 33 974.0
20260906052552 33 360 1.6 6.4 0.00 0.00 0.00 32 974.1
20260906052052 33 360 3.2 6.4 0.00 0.00 0.00 32 974.1
20260906051552 33 360 1.6 6.4 0.00 0.00 0.00 31 974.1
20260906051052 34 360 3.2 8.0 0.00 0.00 0.00 31 974.1
20260906050551 34 360 4.8 9.7 0.00 0.00 0.00 30 974.2
20260906050108 34 360 4.8 9.7 0.00 0.00 0.00 30 974.1
20260906045551 34 360 4.8 8.0 0.00 0.00 0.00 30 974.1
20260906045052 34 360 4.8 9.7 0.00 0.00 0.00 30 974.1
20260906044552 34 360 6.4 9.7 0.00 0.00 0.00 30 974.2
20260906044052 34 360 6.4 9.7 0.00 0.00 0.00 31 974.1
20260906043551 34 360 4.8 8.0 0.00 0.00 0.00 31 974.1
20260906043106 34 360 4.8 8.0 0.00 0.00 0.00 31 974.1
20260906042551 34 360 4.8 9.7 0.00 0.00 0.00 30 974.2
20260906042051 34 360 4.8 9.7 0.00 0.00 0.00 30 974.2
20260906041552 34 360 4.8 9.7 0.00 0.00 0.00 30 974.2
20260906041052 34 360 4.8 8.0 0.00 0.00 0.00 30 974.1
20260906040551 34 360 4.8 8.0 0.00 0.00 0.00 31 974.1
20260906040110 34 360 4.8 8.0 0.00 0.00 0.00 31 974.2
20260906035552 33 360 3.2 6.4 0.00 0.00 0.00 31 974.1
20260906035052 33 360 4.8 6.4 0.00 0.00 0.00 31 974.1
20260906034552 33 360 3.2 6.4 0.00 0.00 0.00 31 974.0
20260906034051 33 360 1.6 3.2 0.00 0.00 0.00 32 973.9
20260906033551 33 360 0.0 0.0 0.00 0.00 0.00 32 973.8
20260906033053 33 360 0.0 0.0 0.00 0.00 0.00 32 973.9
20260906032555 33 360 0.0 1.6 0.00 0.00 0.00 32 973.7
20260906032054 33 360 0.0 1.6 0.00 0.00 0.00 32 973.7
20260906031554 33 360 0.0 1.6 0.00 0.00 0.00 32 973.6
20260906031052 33 360 0.0 4.8 0.00 0.00 0.00 32 973.6
20260906030552 33 360 0.0 8.0 0.00 0.00 0.00 32 973.5
20260906030059 33 360 4.8 9.7 0.00 0.00 0.00 32 973.5
20260906025551 33 360 4.8 9.7 0.00 0.00 0.00 32 973.5
20260906025052 33 360 4.8 12.9 0.00 0.00 0.00 32 973.5
20260906024551 33 360 4.8 14.5 0.00 0.00 0.00 32 973.5
20260906024056 33 360 9.7 16.1 0.00 0.00 0.00 32 973.4
20260906023552 33 360 11.3 16.1 0.00 0.00 0.00 32 973.4
20260906023106 33 360 9.7 14.5 0.00 0.00 0.00 32 973.3
20260906022551 33 144 9.7 14.5 0.00 0.00 0.00 32 973.4
20260906022052 33 13 9.7 14.5 0.00 0.00 0.00 32 973.4
20260906021552 34 14 8.0 12.9 0.00 0.00 0.00 32 973.3
20260906021051 34 15 6.4 12.9 0.00 0.00 0.00 32 973.3
20260906020552 34 19 8.0 12.9 0.00 0.00 0.00 32 973.3
20260906020051 34 15 8.0 12.9 0.00 0.00 0.00 32 973.4
20260906015551 34 360 6.4 12.9 0.00 0.00 0.00 31 973.4
20260906015052 35 15 6.4 12.9 0.00 0.00 0.00 31 973.3
20260906014608 35 360 8.0 12.9 0.00 0.00 0.00 32 973.4
20260906014051 35 360 8.0 14.5 0.00 0.00 0.00 32 973.4
20260906013552 35 360 8.0 14.5 0.00 0.00 0.00 32 973.5
20260906013054 35 360 6.4 12.9 0.00 0.00 0.00 31 973.4
20260906012551 35 360 6.4 12.9 0.00 0.00 0.00 31 973.5
20260906012051 35 360 8.0 14.5 0.00 0.00 0.00 31 973.5
20260906011556 35 21 8.0 14.5 0.00 0.00 0.00 31 973.5
20260906011051 35 360 9.7 14.5 0.00 0.00 0.00 30 973.6
20260906010551 35 360 8.0 14.5 0.00 0.00 0.00 30 973.6
20260906010052 35 360 9.7 17.7 0.00 0.00 0.00 30 973.5
20260906005551 36 360 11.3 19.3 0.00 0.00 0.00 30 973.7
20260906005052 36 360 11.3 19.3 0.00 0.00 0.00 29 973.7
20260906004607 36 360 14.5 22.5 0.00 0.00 0.00 29 973.6
20260906004055 36 360 14.5 27.4 0.00 0.00 0.00 29 973.5
20260906003551 36 360 19.3 27.4 0.00 0.00 0.00 29 973.6
20260906003054 36 360 16.1 25.7 0.00 0.00 0.00 29 973.5
20260906002551 36 360 16.1 25.7 0.00 0.00 0.00 29 973.6
20260906002052 36 360 14.5 24.1 0.00 0.00 0.00 28 973.4
20260906001551 36 360 14.5 24.1 0.00 0.00 0.00 28 973.5
20260906001051 36 360 17.7 24.1 0.00 0.00 0.00 28 973.4
20260906000552 36 360 16.1 24.1 0.00 0.00 0.00 28 973.5
20260906000104 36 360 16.1 24.1 0.00 0.00 0.00 28 973.4
20260905235552 36 360 12.9 24.1 0.00 0.00 0.00 28 973.5
20260905235052 36 360 17.7 24.1 0.00 0.00 0.00 28 973.4
20260905234556 36 360 17.7 22.5 0.00 0.00 0.00 28 973.4
20260905234051 37 360 14.5 22.5 0.00 0.00 0.00 28 973.3
20260905233552 37 360 14.5 20.9 0.00 0.00 0.00 27 973.4
20260905233056 37 17 16.1 22.5 0.00 0.00 0.00 27 973.4
20260905232552 37 132 12.9 22.5 0.00 0.00 0.00 27 973.5
20260905232052 37 128 12.9 22.5 0.00 0.00 0.00 26 973.5
20260905231554 37 130 14.5 25.7 0.00 0.00 0.00 27 973.5
20260905231051 37 126 14.5 24.1 0.00 0.00 0.00 26 973.5
20260905230551 37 127 17.7 24.1 0.00 0.00 0.00 26 973.5
20260905230052 37 360 16.1 25.7 0.00 0.00 0.00 26 973.5
20260905225555 37 130 17.7 27.4 0.00 0.00 0.00 26 973.6
20260905225051 37 360 16.1 27.4 0.00 0.00 0.00 26 973.7
20260905224603 37 134 16.1 24.1 0.00 0.00 0.00 27 973.7
20260905224052 37 360 14.5 24.1 0.00 0.00 0.00 27 973.7
20260905223551 37 133 14.5 24.1 0.00 0.00 0.00 27 973.6
20260905223052 36 360 12.9 24.1 0.00 0.00 0.00 27 973.7
20260905222552 36 360 14.5 24.1 0.00 0.00 0.00 27 973.8
20260905222051 36 360 17.7 24.1 0.00 0.00 0.00 27 973.9
20260905221551 36 360 16.1 24.1 0.00 0.00 0.00 26 973.9
20260905221052 36 15 16.1 24.1 0.00 0.00 0.00 26 973.9
20260905220551 36 16 11.3 25.7 0.00 0.00 0.00 27 973.9
20260905220053 36 17 16.1 25.7 0.00 0.00 0.00 27 974.1
20260905215552 36 29 16.1 24.1 0.00 0.00 0.00 27 974.2
20260905215051 36 17 16.1 27.4 0.00 0.00 0.00 27 974.2
20260905214552 36 20 16.1 27.4 0.00 0.00 0.00 27 974.2
20260905214052 36 22 17.7 27.4 0.00 0.00 0.00 26 974.2
20260905213552 37 146 19.3 27.4 0.00 0.00 0.00 26 974.3
20260905213052 37 128 14.5 22.5 0.00 0.00 0.00 26 974.2
20260905212552 37 134 12.9 20.9 0.00 0.00 0.00 27 974.3
20260905212052 37 157 12.9 22.5 0.00 0.00 0.00 26 974.4
20260905211552 37 126 16.1 25.7 0.00 0.00 0.00 26 974.5
20260905211052 37 117 19.3 25.7 0.00 0.00 0.00 26 974.4
20260905210552 37 63 17.7 25.7 0.00 0.00 0.00 26 974.5
20260905210051 37 133 16.1 22.5 0.00 0.00 0.00 26 974.5
20260905205551 37 49 12.9 22.5 0.00 0.00 0.00 26 974.6
20260905205052 37 76 12.9 22.5 0.00 0.00 0.00 26 974.7
20260905204551 37 126 8.0 24.1 0.00 0.00 0.00 25 974.7
20260905204051 38 143 9.7 19.3 0.00 0.00 0.00 25 974.8
20260905203551 38 187 8.0 16.1 0.00 0.00 0.00 24 974.8
20260905203054 38 65 1.6 14.5 0.00 0.00 0.00 25 974.9
20260905202551 37 51 3.2 9.7 0.00 0.00 0.00 25 975.0
20260905202051 37 107 3.2 12.9 0.00 0.00 0.00 26 975.1
20260905201552 37 360 1.6 12.9 0.00 0.00 0.00 28 975.1
20260905201051 37 161 6.4 12.9 0.00 0.00 0.00 28 975.2
20260905200551 36 132 4.8 12.9 0.00 0.00 0.00 28 975.2
20260905200056 37 315 8.0 16.1 0.00 0.00 0.00 28 975.3
20260905195552 37 212 8.0 17.7 0.00 0.00 0.00 29 975.4
20260905195053 36 209 4.8 12.9 0.00 0.00 0.00 29 975.5
20260905194552 36 210 4.8 16.1 0.00 0.00 0.00 30 975.5
20260905194051 36 360 11.3 16.1 0.00 0.00 0.00 29 975.6
20260905193553 37 360 11.3 16.1 0.00 0.00 0.00 30 975.6
20260905193051 37 206 4.8 12.9 0.00 0.00 0.00 29 975.7
20260905192552 37 187 6.4 12.9 0.00 0.00 0.00 30 975.7
20260905192054 37 360 8.0 12.9 0.00 0.00 0.00 30 975.8
20260905191551 36 213 8.0 14.5 0.00 0.00 0.00 30 975.9
20260905191051 36 205 8.0 14.5 0.00 0.00 0.00 31 976.0
20260905190551 36 184 9.7 14.5 0.00 0.00 0.00 31 976.1
20260905185553 36 153 3.2 14.5 0.00 0.00 0.00 31 976.3
20260905185052 35 135 3.2 8.0 0.00 0.00 0.00 32 976.4
20260905184559 35 136 4.8 14.5 0.00 0.00 0.00 32 976.4
20260905184051 35 95 8.0 14.5 0.00 0.00 0.00 32 976.4
20260905183552 36 142 8.0 12.9 0.00 0.00 0.00 31 976.4
20260905183057 36 155 0.0 9.7 0.00 0.00 0.00 31 976.6
20260905182551 36 153 4.8 11.3 0.00 0.00 0.00 32 976.6
20260905182052 36 151 0.0 11.3 0.00 0.00 0.00 32 976.7
20260905181557 36 188 3.2 8.0 0.00 0.00 0.00 32 976.7
20260905181053 36 197 3.2 8.0 0.00 0.00 0.00 32 976.7
20260905180552 35 187 0.0 9.7 0.00 0.00 0.00 32 976.8
20260905180052 35 188 3.2 9.7 0.00 0.00 0.00 33 976.8
20260905175551 35 136 3.2 8.0 0.00 0.00 0.00 33 976.9
20260905175052 35 229 3.2 9.7 0.00 0.00 0.00 34 977.0
20260905174551 35 230 4.8 9.7 0.00 0.00 0.00 34 977.0
20260905174051 35 251 3.2 8.0 0.00 0.00 0.00 34 976.9
20260905173552 35 254 3.2 8.0 0.00 0.00 0.00 35 976.9
20260905173052 34 253 4.8 9.7 0.00 0.00 0.00 35 976.9
20260905172551 34 257 3.2 9.7 0.00 0.00 0.00 35 977.0
20260905172052 34 264 0.0 4.8 0.00 0.00 0.00 36 976.9
20260905171551 33 74 0.0 4.8 0.00 0.00 0.00 36 976.9
20260905171051 33 360 1.6 4.8 0.00 0.00 0.00 36 976.8
20260905170552 33 360 0.0 4.8 0.00 0.00 0.00 36 976.8
20260905170052 33 17 1.6 6.4 0.00 0.00 0.00 36 976.9
20260905165551 33 17 3.2 6.4 0.00 0.00 0.00 36 976.7
20260905165051 33 17 1.6 4.8 0.00 0.00 0.00 36 976.7
20260905164555 32 360 0.0 6.4 0.00 0.00 0.00 36 976.7
20260905164052 32 360 3.2 6.4 0.00 0.00 0.00 37 976.9
20260905163551 32 360 3.2 6.4 0.00 0.00 0.00 37 976.8
20260905163052 32 360 3.2 6.4 0.00 0.00 0.00 37 976.8
20260905162552 32 360 3.2 6.4 0.00 0.00 0.00 37 976.7
20260905162051 32 360 3.2 6.4 0.00 0.00 0.00 37 976.7
20260905161551 32 360 3.2 4.8 0.00 0.00 0.00 40 976.8
20260905161052 32 360 1.6 4.8 0.00 0.00 0.00 39 976.7
20260905160555 32 360 3.2 4.8 0.00 0.00 0.00 39 976.6
20260905160051 31 360 1.6 4.8 0.00 0.00 0.00 39 976.6
20260905155551 31 360 0.0 4.8 0.00 0.00 0.00 40 976.5
20260905155051 31 360 1.6 4.8 0.00 0.00 0.00 40 976.7
20260905154551 31 360 3.2 4.8 0.00 0.00 0.00 42 976.6
20260905154052 31 360 1.6 4.8 0.00 0.00 0.00 41 976.4
20260905153552 31 360 1.6 4.8 0.00 0.00 0.00 41 976.3
20260905153059 31 360 1.6 4.8 0.00 0.00 0.00 42 976.4